Location: Fort Wayne
(41.1310°N, 85.1290°W)
Time: 05:44:10
(UTC-04:00)

IDEFIX/ARIANE 42P - Visible Passes

Search period start: 31 March 2015 00:00
Search period end: 10 April 2015 00:00
Orbit: 785 x 804 km, 98.3° (Epoch: 30 March)

Date Brightness Start Highest point End Pass type
(mag) Time Alt. Az. Time Alt. Az. Time Alt. Az.
31 Mar 4.0 21:27:46 10° SSW 21:32:37 38° W 21:37:27 10° NNW visible
01 Apr 2.9 20:59:05 10° S 21:04:17 70° WSW 21:09:30 10° NNW visible
02 Apr 2.6 20:30:56 10° SSE 20:36:04 65° ENE 20:41:14 10° N visible
02 Apr 5.3 22:13:11 10° SW 22:16:15 15° W 22:19:04 10° NW visible
03 Apr 4.6 21:43:13 10° SSW 21:47:41 27° W 21:52:03 10° NW visible
04 Apr 3.5 21:14:13 10° S 21:19:15 50° W 21:24:18 10° NNW visible
05 Apr 2.6 20:45:46 10° SSE 20:50:59 89° ENE 20:56:13 10° NNW visible
05 Apr 5.6 22:30:34 10° W 22:31:27 10° W 22:31:55 10° W visible
06 Apr 5.1 21:58:56 10° SW 22:02:46 20° W 22:06:27 10° NW visible
07 Apr 4.1 21:29:29 10° SSW 21:34:16 36° W 21:39:00 10° NNW visible
08 Apr 3.0 21:00:45 10° S 21:05:55 66° W 21:11:05 10° NNW visible
09 Apr 2.6 20:32:32 10° SSE 20:37:41 69° ENE 20:42:51 10° N visible
09 Apr 5.3 22:15:05 10° WSW 22:17:55 14° W 22:20:28 10° WNW visible
